period_start,C,m1,H,J0,J1,J2,J3,J4,J5,JA,JB,JC,JD,JJ,JK,JN,#
2013-08-16 00:00:58,0.08,0.42,0.00,25.25,29.23,30.95,5.92,28.71,1009.81,2042.92,3278.04,3234.15,3478.27,350.45,319.58,18.97,0000 0000 0000 0000 000000
2013-08-16 00:01:58,0.04,0.42,0.00,25.31,29.23,31.02,5.87,28.75,1009.79,2042.93,3278.01,3234.07,3478.15,349.90,319.63,18.98,0000 0000 0000 0000 000000
2013-08-16 00:02:58,0.03,0.42,0.00,25.30,29.23,31.06,5.94,28.71,1009.80,2042.90,3278.00,3234.02,3478.08,350.38,319.65,18.98,0000 0000 0000 0000 000000
2013-08-16 00:03:58,0.01,0.42,0.00,25.30,29.24,31.11,5.86,28.67,1009.82,2042.93,3277.99,3234.00,3478.03,350.12,319.44,18.99,0000 0000 0000 0000 000000
2013-08-16 00:04:58,0.04,0.42,0.00,25.26,29.24,31.07,6.06,28.75,1009.80,2042.92,3277.99,3234.01,3478.01,350.50,319.81,18.99,0000 0000 0000 0000 000000
2013-08-16 00:05:58,-0.01,0.42,0.00,25.28,29.25,31.08,5.63,28.54,1009.79,2042.92,3277.98,3234.01,3478.01,350.00,319.71,19.00,0000 0000 0000 0000 000000
2013-08-16 00:06:59,0.00,0.42,0.00,25.27,29.25,31.11,5.63,28.63,1009.83,2042.92,3277.95,3234.02,3478.00,349.76,319.14,19.01,0000 0000 0000 0000 000000
2013-08-16 00:07:59,0.01,0.42,0.00,25.28,29.25,31.13,5.96,28.38,1009.79,2042.92,3277.91,3234.01,3478.00,350.84,319.96,19.01,0000 0000 0000 0000 000000
2013-08-16 00:08:59,0.00,0.42,0.00,25.28,29.25,31.22,5.86,28.50,1009.80,2042.96,3277.77,3234.00,3478.00,349.59,319.23,19.02,0000 0000 0000 0000 000000
2013-08-16 00:10:00,0.05,0.42,0.00,25.31,29.25,31.30,5.90,28.71,1009.80,2042.98,3277.62,3234.00,3478.00,349.73,319.05,19.02,0000 0000 0000 0000 000000
2013-08-16 00:11:00,0.02,0.42,0.00,25.31,29.25,31.25,6.07,28.88,1009.80,2042.96,3277.34,3234.00,3478.00,350.61,320.05,19.03,0000 0000 0000 0000 000000
2013-08-16 00:12:00,0.03,0.42,0.00,25.29,29.25,31.19,5.97,28.71,1009.80,2042.89,3277.14,3234.00,3478.00,350.19,319.82,19.04,0000 0000 0000 0000 000000
2013-08-16 00:13:00,-0.05,0.42,0.00,25.31,29.25,31.21,5.96,28.92,1009.81,2042.85,3277.05,3234.00,3477.99,350.33,318.98,19.04,0000 0000 0000 0000 000000
2013-08-16 00:14:00,-0.01,0.42,0.00,25.33,29.25,31.20,6.02,28.79,1009.79,2042.89,3277.03,3233.99,3477.96,350.05,319.22,19.05,0000 0000 0000 0000 000000
2013-08-16 00:15:01,0.06,0.42,0.00,25.32,29.25,31.26,5.89,28.92,1009.79,2042.90,3277.01,3233.99,3477.95,349.70,319.02,19.05,0000 0000 0000 0000 000000
2013-08-16 00:16:01,0.02,0.42,0.00,25.32,29.26,31.33,5.85,28.88,1009.81,2042.85,3277.00,3233.98,3477.77,349.13,318.50,19.06,0000 0000 0000 0000 000000
2013-08-16 00:17:01,-0.03,0.42,0.00,25.30,29.27,31.31,5.83,28.92,1009.79,2042.89,3277.00,3233.97,3477.76,350.00,319.31,19.06,0000 0000 0000 0000 000000
2013-08-16 00:18:01,0.04,0.42,0.00,25.25,29.27,31.29,5.91,28.83,1009.79,2042.86,3277.00,3233.92,3477.58,349.57,318.96,19.07,0000 0000 0000 0000 000000
2013-08-16 00:19:02,0.01,0.42,0.00,25.23,29.27,31.26,5.79,28.79,1009.80,2042.78,3276.99,3233.84,3477.34,350.43,319.78,19.08,0000 0000 0000 0000 000000
2013-08-16 00:20:02,-0.01,0.42,0.00,25.26,29.27,31.24,5.83,28.71,1009.81,2042.82,3276.96,3233.82,3477.21,349.91,319.27,19.08,0000 0000 0000 0000 000000
2013-08-16 00:21:02,0.06,0.42,0.00,25.29,29.27,31.36,5.78,28.96,1009.81,2042.87,3276.94,3233.70,3477.14,349.74,319.09,19.09,0000 0000 0000 0000 000000
2013-08-16 00:22:02,0.06,0.42,0.00,25.30,29.27,31.30,5.77,28.92,1009.80,2042.88,3276.93,3233.58,3477.08,349.70,319.04,19.09,0000 0000 0000 0000 000000
2013-08-16 00:23:03,0.02,0.42,0.00,25.29,29.27,31.24,5.86,28.83,1009.80,2042.82,3276.93,3233.42,3477.04,349.39,318.57,19.10,0000 0000 0000 0000 000000
2013-08-16 00:24:03,0.01,0.42,0.00,25.35,29.27,31.25,5.80,28.88,1009.79,2042.73,3276.82,3233.40,3477.01,349.87,318.75,19.11,0000 0000 0000 0000 000000
2013-08-16 00:25:03,-0.03,0.42,0.00,25.36,29.27,31.25,6.02,28.79,1009.80,2042.79,3276.71,3233.38,3477.02,350.35,319.56,19.11,0000 0000 0000 0000 000000
2013-08-16 00:26:03,0.06,0.42,0.00,25.34,29.28,31.26,5.87,28.88,1009.79,2042.86,3276.62,3233.33,3477.02,349.89,319.17,19.12,0000 0000 0000 0000 000000
2013-08-16 00:27:04,0.08,0.42,0.00,25.36,29.28,31.35,5.90,28.83,1009.81,2042.83,3276.60,3233.30,3477.00,349.63,318.90,19.12,0000 0000 0000 0000 000000
2013-08-16 00:28:04,-0.03,0.42,0.00,25.34,29.28,31.40,5.93,28.92,1009.80,2042.78,3276.49,3233.20,3477.00,350.49,319.72,19.13,0000 0000 0000 0000 000000
2013-08-16 00:29:04,-0.02,0.42,0.00,25.38,29.28,31.39,5.81,28.71,1009.80,2042.65,3276.29,3233.10,3477.00,349.37,318.66,19.13,0000 0000 0000 0000 000000
2013-08-16 00:30:04,-0.06,0.42,0.00,25.41,29.29,31.42,5.95,28.71,1009.80,2042.54,3276.15,3233.06,3477.00,349.50,318.74,19.14,0000 0000 0000 0000 000000
2013-08-16 00:31:05,-0.03,0.42,0.00,25.41,29.30,31.37,5.87,28.92,1009.80,2042.47,3276.06,3233.05,3477.00,350.04,319.23,19.15,0000 0000 0000 0000 000000
2013-08-16 00:32:05,-0.05,0.42,0.00,25.42,29.30,31.36,5.80,28.83,1009.80,2042.32,3276.03,3233.02,3476.98,349.21,318.48,19.15,0000 0000 0000 0000 000000
2013-08-16 00:33:05,-0.10,0.42,0.00,25.45,29.30,31.37,5.87,28.67,1009.80,2042.22,3276.01,3233.00,3476.96,349.36,318.57,19.16,0000 0000 0000 0000 000000
2013-08-16 00:34:05,-0.07,0.42,0.00,25.43,29.30,31.34,5.77,28.79,1009.79,2042.12,3276.00,3233.00,3476.93,349.20,318.53,19.16,0000 0000 0000 0000 000000
2013-08-16 00:35:05,-0.06,0.42,0.00,25.43,29.30,31.32,5.83,28.71,1009.82,2042.15,3276.00,3233.00,3476.81,349.70,319.09,19.17,0000 0000 0000 0000 000000
2013-08-16 00:36:06,0.03,0.42,0.00,25.40,29.30,31.38,5.83,28.83,1009.81,2042.20,3275.97,3233.00,3476.67,350.31,319.49,19.18,0000 0000 0000 0000 000000
2013-08-16 00:37:06,0.05,0.42,0.00,25.40,29.30,31.38,6.06,28.96,1009.80,2042.21,3275.97,3233.00,3476.61,349.93,319.15,19.18,0000 0000 0000 0000 000000
2013-08-16 00:38:06,0.02,0.42,0.00,25.42,29.30,31.33,5.95,28.79,1009.80,2042.20,3275.98,3233.00,3476.53,350.67,319.80,19.19,0000 0000 0000 0000 000000
2013-08-16 00:39:06,0.00,0.42,0.00,25.47,29.30,31.27,5.86,28.75,1009.81,2042.19,3275.98,3233.00,3476.36,349.80,318.95,19.19,0000 0000 0000 0000 000000
2013-08-16 00:40:07,0.01,0.42,0.00,25.53,29.30,31.23,5.94,28.96,1009.78,2042.13,3275.98,3232.99,3476.21,350.40,319.43,19.20,0000 0000 0000 0000 000000
2013-08-16 00:41:07,-0.01,0.42,0.00,25.49,29.30,31.28,5.91,29.00,1009.82,2042.07,3275.90,3232.97,3476.10,350.22,318.80,19.21,0000 0000 0000 0000 000000
2013-08-16 00:42:07,-0.00,0.42,0.00,25.50,29.31,31.29,6.10,29.13,1009.82,2042.04,3275.67,3232.91,3476.06,350.23,319.33,19.21,0000 0000 0000 0000 000000
2013-08-16 00:43:08,0.02,0.42,0.00,25.46,29.32,31.30,6.00,29.00,1009.80,2042.05,3275.53,3232.91,3476.03,350.46,319.56,19.22,0000 0000 0000 0000 000000
2013-08-16 00:44:08,0.02,0.42,0.00,25.50,29.32,31.38,5.84,28.88,1009.81,2042.03,3275.49,3232.93,3476.03,349.69,319.26,19.22,0000 0000 0000 0000 000000
2013-08-16 00:45:08,-0.03,0.42,0.00,25.52,29.32,31.46,6.00,28.75,1009.86,2042.03,3275.50,3232.97,3476.01,350.45,319.52,19.23,0000 0000 0000 0000 000000
2013-08-16 00:46:09,0.00,0.42,0.00,25.51,29.32,31.50,5.90,28.63,1009.86,2042.03,3275.34,3232.93,3476.00,350.92,319.96,19.23,0000 0000 0000 0000 000000
2013-08-16 00:47:09,0.02,0.42,0.00,25.53,29.32,31.43,5.84,28.71,1009.87,2042.03,3275.39,3232.94,3476.01,350.12,319.50,19.24,0000 0000 0000 0000 000000
2013-08-16 00:48:09,-0.00,0.42,0.00,25.51,29.32,31.40,5.89,28.88,1009.93,2042.03,3275.22,3232.88,3476.00,350.24,318.95,19.25,0000 0000 0000 0000 000000
2013-08-16 00:49:09,0.05,0.42,0.00,25.54,29.32,31.45,5.90,28.83,1009.86,2042.02,3275.09,3232.65,3476.00,350.36,319.47,19.25,0000 0000 0000 0000 000000
2013-08-16 00:50:09,0.05,0.42,0.00,25.54,29.32,31.41,5.93,28.63,1009.86,2042.04,3275.03,3232.45,3476.00,350.60,319.42,19.26,0000 0000 0000 0000 000000
2013-08-16 00:51:10,0.05,0.42,0.00,25.55,29.32,31.49,6.00,28.79,1009.83,2042.02,3275.02,3232.39,3476.00,350.43,319.06,19.26,0000 0000 0000 0000 000000
2013-08-16 00:52:10,0.01,0.42,0.00,25.54,29.33,31.48,5.77,28.71,1009.84,2042.04,3275.00,3232.33,3476.00,349.44,318.49,19.27,0000 0000 0000 0000 000000
2013-08-16 00:53:10,0.02,0.42,0.00,25.55,29.33,31.48,5.94,28.75,1009.86,2042.03,3275.01,3232.28,3476.00,350.10,319.16,19.28,0000 0000 0000 0000 000000
2013-08-16 00:54:10,-0.00,0.42,0.00,25.57,29.34,31.48,5.88,28.54,1009.86,2042.04,3275.00,3232.30,3476.00,349.34,318.47,19.28,0000 0000 0000 0000 000000
2013-08-16 00:55:11,0.01,0.42,0.00,25.56,29.35,31.47,5.90,28.75,1009.87,2042.06,3275.01,3232.25,3475.99,349.30,318.42,19.29,0000 0000 0000 0000 000000
2013-08-16 00:56:11,0.02,0.42,0.00,25.56,29.35,31.46,5.73,28.79,1009.85,2042.03,3275.00,3232.25,3475.99,349.46,318.56,19.29,0000 0000 0000 0000 000000
2013-08-16 00:57:11,-0.01,0.42,0.00,25.57,29.35,31.44,5.88,28.71,1009.86,2042.04,3275.00,3232.17,3475.99,349.62,318.21,19.30,0000 0000 0000 0000 000000
2013-08-16 00:58:12,0.02,0.42,0.00,25.61,29.35,31.39,5.90,28.88,1009.89,2042.04,3275.00,3232.12,3475.97,350.33,319.32,19.31,0000 0000 0000 0000 000000
2013-08-16 00:59:12,0.01,0.42,0.00,25.63,29.35,31.43,6.00,28.88,1009.90,2042.01,3275.00,3232.06,3475.88,350.63,319.58,19.31,0000 0000 0000 0000 000000
2013-08-16 01:00:12,0.00,0.42,0.00,25.61,29.35,31.47,6.10,28.79,1009.88,2042.01,3275.00,3232.03,3475.81,351.29,319.84,19.32,0000 0000 0000 0000 000000
2013-08-16 01:01:12,0.00,0.42,0.00,25.57,29.35,31.42,5.93,28.67,1009.88,2042.00,3275.00,3232.04,3475.70,350.34,318.85,19.32,0000 0000 0000 0000 000000
2013-08-16 01:02:13,0.01,0.42,0.00,25.57,29.36,31.42,6.07,28.71,1009.84,2042.00,3274.99,3232.03,3475.48,350.84,319.60,19.33,0000 0000 0000 0000 000000
2013-08-16 01:03:13,0.02,0.42,0.00,25.58,29.36,31.47,5.92,28.63,1009.83,2042.01,3274.97,3232.01,3475.31,349.83,318.80,19.33,0000 0000 0000 0000 000000
2013-08-16 01:04:13,0.02,0.42,0.00,25.57,29.37,31.47,5.79,28.58,1009.82,2042.00,3274.87,3232.00,3475.17,349.47,318.67,19.34,0000 0000 0000 0000 000000
2013-08-16 01:05:14,0.03,0.43,0.00,25.60,29.37,31.49,5.91,28.88,1009.80,2042.00,3274.76,3232.00,3475.09,349.69,318.71,19.35,0000 0000 0000 0000 000000
2013-08-16 01:06:14,0.01,0.43,0.00,25.65,29.37,31.51,5.77,28.63,1009.82,2042.00,3274.74,3232.00,3475.03,349.75,318.57,19.35,0000 0000 0000 0000 000000
2013-08-16 01:07:14,0.01,0.43,0.00,25.67,29.37,31.44,5.78,28.75,1009.80,2042.00,3274.48,3231.99,3475.01,350.02,319.33,19.36,0000 0000 0000 0000 000000
2013-08-16 01:08:15,0.03,0.43,0.00,25.62,29.37,31.43,5.97,28.71,1009.81,2042.00,3274.27,3231.98,3475.01,350.28,319.37,19.36,0000 0000 0000 0000 000000
2013-08-16 01:09:15,0.03,0.43,0.00,25.63,29.37,31.53,5.93,28.63,1009.83,2042.00,3274.19,3231.99,3475.00,350.61,319.33,19.37,0000 0000 0000 0000 000000
2013-08-16 01:10:15,0.01,0.43,0.00,25.64,29.38,31.56,5.77,28.63,1009.80,2042.00,3274.12,3231.95,3475.00,349.14,318.28,19.38,0000 0000 0000 0000 000000
2013-08-16 01:11:16,0.02,0.43,0.00,25.67,29.39,31.54,5.83,28.88,1009.82,2042.00,3274.06,3231.94,3475.00,350.23,319.11,19.38,0000 0000 0000 0000 000000
2013-08-16 01:12:16,0.01,0.43,0.00,25.74,29.39,31.49,5.88,28.67,1009.81,2042.00,3274.03,3231.96,3475.00,349.93,318.78,19.39,0000 0000 0000 0000 000000
2013-08-16 01:13:16,0.00,0.43,0.00,25.71,29.40,31.50,5.96,28.83,1009.82,2042.00,3274.03,3231.95,3474.99,349.46,318.39,19.39,0000 0000 0000 0000 000000
2013-08-16 01:14:16,0.03,0.43,0.00,25.70,29.40,31.54,5.88,28.96,1009.82,2042.00,3274.01,3231.80,3474.97,349.95,318.99,19.40,0000 0000 0000 0000 000000
2013-08-16 01:15:17,0.03,0.43,0.00,25.72,29.40,31.58,6.03,28.71,1009.82,2042.00,3274.00,3231.68,3474.97,350.87,319.42,19.40,0000 0000 0000 0000 000000
2013-08-16 01:16:17,0.01,0.43,0.00,25.70,29.40,31.56,6.02,28.67,1009.83,2042.00,3274.00,3231.51,3474.96,350.63,319.47,19.41,0000 0000 0000 0000 000000
2013-08-16 01:17:17,0.04,0.43,0.00,25.68,29.40,31.57,5.85,28.71,1009.81,2042.00,3274.00,3231.33,3474.94,350.70,319.70,19.42,0000 0000 0000 0000 000000
2013-08-16 01:18:18,0.04,0.43,0.00,25.69,29.40,31.60,6.03,28.79,1009.82,2042.00,3274.00,3231.18,3474.93,350.90,319.73,19.42,0000 0000 0000 0000 000000
2013-08-16 01:19:18,0.02,0.43,0.00,25.69,29.40,31.62,5.87,28.67,1009.81,2042.00,3274.00,3231.09,3474.86,350.29,319.17,19.43,0000 0000 0000 0000 000000
2013-08-16 01:20:18,0.04,0.43,0.00,25.72,29.42,31.55,5.92,28.79,1009.83,2042.00,3273.98,3231.05,3474.55,351.04,319.25,19.43,0000 0000 0000 0000 000000
2013-08-16 01:21:19,0.05,0.43,0.00,25.72,29.42,31.49,5.77,28.92,1009.84,2042.00,3273.97,3231.02,3474.27,350.08,318.85,19.44,0000 0000 0000 0000 000000
2013-08-16 01:22:19,0.03,0.43,0.00,25.77,29.42,31.54,5.97,28.67,1009.81,2042.00,3273.97,3231.00,3474.20,350.60,318.93,19.45,0000 0000 0000 0000 000000
2013-08-16 01:23:19,0.01,0.43,0.00,25.82,29.42,31.56,5.77,28.75,1009.84,2042.00,3273.96,3231.00,3474.15,350.10,318.96,19.45,0000 0000 0000 0000 000000
2013-08-16 01:24:19,0.01,0.43,0.00,25.76,29.42,31.53,5.92,28.71,1009.81,2042.00,3273.92,3231.00,3474.09,349.96,318.79,19.46,0000 0000 0000 0000 000000
2013-08-16 01:25:20,0.02,0.43,0.00,25.74,29.42,31.56,5.70,28.58,1009.80,2042.00,3273.85,3231.00,3474.05,348.86,318.03,19.46,0000 0000 0000 0000 000000
2013-08-16 01:26:20,0.01,0.43,0.00,25.75,29.42,31.61,5.93,28.83,1009.83,2042.00,3273.79,3231.00,3474.04,350.14,319.44,19.47,0000 0000 0000 0000 000000
2013-08-16 01:27:20,0.01,0.43,0.00,25.74,29.43,31.66,5.91,28.63,1009.82,2042.00,3273.62,3231.00,3474.03,349.92,318.66,19.48,0000 0000 0000 0000 000000
2013-08-16 01:28:20,0.02,0.43,0.00,25.72,29.44,31.70,5.71,28.71,1009.84,2042.00,3273.41,3231.00,3474.01,350.81,320.30,19.48,0000 0000 0000 0000 000000
2013-08-16 01:29:21,0.03,0.43,0.00,25.72,29.45,31.66,5.97,28.71,1009.83,2042.00,3273.21,3231.00,3474.01,350.34,319.18,19.49,0000 0000 0000 0000 000000
2013-08-16 01:30:21,0.02,0.43,0.00,25.74,29.45,31.69,5.89,28.71,1009.81,2042.00,3273.11,3231.00,3474.00,350.03,318.88,19.49,0000 0000 0000 0000 000000
2013-08-16 01:31:21,0.01,0.43,0.00,25.78,29.45,31.72,5.78,28.75,1009.81,2042.00,3273.06,3231.00,3474.00,350.40,319.64,19.50,0000 0000 0000 0000 000000
2013-08-16 01:32:22,0.00,0.43,0.00,25.82,29.45,31.69,5.73,28.75,1009.80,2041.99,3273.03,3231.00,3474.00,349.94,318.70,19.50,0000 0000 0000 0000 000000
2013-08-16 01:33:22,0.01,0.43,0.00,25.84,29.45,31.71,6.13,28.79,1009.81,2041.97,3273.02,3230.99,3474.00,351.34,319.66,19.51,0000 0000 0000 0000 000000
2013-08-16 01:34:22,-0.01,0.43,0.00,25.78,29.45,31.78,5.77,28.79,1009.80,2041.96,3273.00,3230.96,3474.00,349.94,318.87,19.52,0000 0000 0000 0000 000000
2013-08-16 01:35:22,-0.00,0.43,0.00,25.75,29.47,31.82,5.97,28.83,1009.82,2041.95,3273.00,3230.91,3473.98,350.64,319.05,19.52,0000 0000 0000 0000 000000
2013-08-16 01:36:23,0.01,0.43,0.00,25.75,29.47,31.84,5.99,28.83,1009.82,2041.94,3273.00,3230.92,3473.99,349.79,318.65,19.53,0000 0000 0000 0000 000000
2013-08-16 01:37:23,0.01,0.43,0.00,25.71,29.47,31.88,5.87,28.67,1009.81,2041.94,3273.00,3230.92,3473.99,349.91,318.81,19.53,0000 0000 0000 0000 000000
2013-08-16 01:38:23,-0.01,0.43,0.00,25.74,29.47,31.85,5.90,28.96,1009.80,2041.94,3273.00,3230.88,3473.97,349.73,318.16,19.54,0000 0000 0000 0000 000000
2013-08-16 01:39:23,0.01,0.43,0.00,25.74,29.47,31.90,5.99,28.63,1009.83,2041.90,3273.00,3230.71,3473.97,350.25,319.08,19.55,0000 0000 0000 0000 000000
2013-08-16 01:40:23,0.03,0.43,0.00,25.70,29.47,31.90,5.89,28.58,1009.80,2041.85,3273.00,3230.52,3473.92,349.64,318.20,19.55,0000 0000 0000 0000 000000
2013-08-16 01:41:24,0.01,0.43,0.00,25.73,29.48,31.82,5.70,28.63,1009.83,2041.86,3273.00,3230.41,3473.87,349.63,318.53,19.56,0000 0000 0000 0000 000000
2013-08-16 01:42:24,0.02,0.43,0.00,25.72,29.49,31.83,5.97,28.71,1009.80,2041.88,3272.98,3230.35,3473.82,350.28,319.55,19.56,0000 0000 0000 0000 000000
2013-08-16 01:43:24,0.03,0.43,0.00,25.72,29.50,31.89,5.82,28.71,1009.82,2041.86,3272.96,3230.25,3473.68,350.02,318.53,19.57,0000 0000 0000 0000 000000
2013-08-16 01:44:25,0.04,0.43,0.00,25.73,29.50,31.90,5.72,28.50,1009.80,2041.89,3272.95,3230.14,3473.54,349.64,318.63,19.57,0000 0000 0000 0000 000000
2013-08-16 01:45:25,0.05,0.43,0.00,25.73,29.50,31.91,5.92,28.71,1009.79,2041.89,3272.95,3230.14,3473.47,350.39,319.37,19.58,0000 0000 0000 0000 000000
2013-08-16 01:46:25,0.01,0.43,0.00,25.74,29.50,31.92,5.86,28.46,1009.80,2041.85,3272.97,3230.10,3473.42,350.33,319.14,19.59,0000 0000 0000 0000 000000
2013-08-16 01:47:25,-0.01,0.43,0.00,25.71,29.50,31.91,5.86,28.63,1009.81,2041.89,3272.95,3230.12,3473.36,349.22,318.53,19.59,0000 0000 0000 0000 000000
2013-08-16 01:48:26,0.02,0.43,0.00,25.73,29.50,31.86,5.97,28.79,1009.80,2041.89,3272.86,3230.08,3473.25,350.07,319.02,19.60,0000 0000 0000 0000 000000
2013-08-16 01:49:26,0.02,0.43,0.00,25.69,29.52,31.79,6.06,28.63,1009.81,2041.81,3272.67,3230.06,3473.10,350.39,319.25,19.60,0000 0000 0000 0000 000000
2013-08-16 01:50:26,0.03,0.43,0.00,25.68,29.52,31.79,5.83,28.63,1009.79,2041.76,3272.36,3230.02,3473.04,349.53,318.79,19.61,0000 0000 0000 0000 000000
2013-08-16 01:51:27,-0.02,0.43,0.00,25.69,29.52,31.79,5.73,28.46,1009.81,2041.70,3272.20,3230.00,3473.02,349.18,318.16,19.62,0000 0000 0000 0000 000000
2013-08-16 01:52:27,-0.03,0.43,0.00,25.75,29.52,31.88,5.79,28.54,1009.82,2041.59,3272.13,3230.00,3473.01,350.25,319.07,19.62,0000 0000 0000 0000 000000
2013-08-16 01:53:27,-0.05,0.43,0.00,25.75,29.52,31.86,5.85,28.92,1009.79,2041.44,3272.08,3230.00,3473.00,349.32,318.33,19.63,0000 0000 0000 0000 000000
2013-08-16 01:54:27,-0.13,0.43,0.00,25.77,29.52,31.86,5.79,28.71,1009.84,2041.27,3272.03,3230.00,3473.00,349.70,319.06,19.63,0000 0000 0000 0000 000000
2013-08-16 01:55:27,-0.13,0.43,0.00,25.78,29.53,31.88,5.87,28.58,1009.80,2041.12,3272.00,3229.97,3472.98,349.63,318.24,19.64,0000 0000 0000 0000 000000
2013-08-16 01:56:28,-0.08,0.43,0.00,25.81,29.54,31.89,5.70,28.54,1009.80,2041.09,3272.00,3229.95,3472.98,348.92,318.14,19.65,0000 0000 0000 0000 000000
2013-08-16 01:57:28,-0.01,0.43,0.00,25.78,29.55,31.83,5.76,28.79,1009.81,2041.08,3271.99,3229.81,3472.86,349.94,318.75,19.65,0000 0000 0000 0000 000000
2013-08-16 01:58:28,0.01,0.43,0.00,25.75,29.55,31.82,6.08,28.79,1009.80,2041.08,3271.96,3229.82,3472.88,350.85,319.62,19.66,0000 0000 0000 0000 000000
2013-08-16 01:59:28,0.05,0.43,0.00,25.77,29.55,31.84,6.00,28.92,1009.80,2041.13,3271.91,3229.74,3472.75,349.84,318.66,19.66,0000 0000 0000 0000 000000
2013-08-16 02:00:29,0.07,0.43,0.00,25.76,29.55,31.80,5.90,28.42,1009.82,2041.08,3271.55,3229.46,3472.41,349.99,318.84,19.67,0000 0000 0000 0000 000000
2013-08-16 02:01:29,0.10,0.43,0.00,25.70,29.55,31.80,5.88,28.67,1009.85,2041.04,3271.28,3229.24,3472.17,350.09,319.03,19.67,0000 0000 0000 0000 000000
2013-08-16 02:02:29,0.09,0.43,0.00,25.71,29.56,31.81,5.97,28.79,1009.84,2041.03,3271.11,3229.10,3472.06,350.07,318.96,19.68,0000 0000 0000 0000 000000
2013-08-16 02:03:30,0.04,0.43,0.00,25.74,29.57,31.83,5.67,28.79,1009.86,2041.04,3271.04,3229.05,3472.02,348.93,318.21,19.69,0000 0000 0000 0000 000000
2013-08-16 02:04:30,0.05,0.43,0.00,25.71,29.57,31.85,5.95,28.75,1009.83,2041.07,3271.01,3229.02,3472.00,350.67,319.15,19.69,0000 0000 0000 0000 000000
2013-08-16 02:05:30,0.01,0.43,0.00,25.73,29.57,31.82,5.77,28.63,1009.82,2041.04,3271.00,3229.00,3472.00,349.66,318.56,19.70,0000 0000 0000 0000 000000
2013-08-16 02:06:30,-0.01,0.43,0.00,25.74,29.57,31.82,5.70,28.71,1009.85,2041.02,3271.00,3229.00,3472.00,349.85,319.09,19.70,0000 0000 0000 0000 000000
2013-08-16 02:07:31,0.00,0.43,0.00,25.75,29.57,31.84,5.90,28.58,1009.92,2041.03,3271.00,3229.00,3472.00,349.74,318.88,19.71,0000 0000 0000 0000 000000
2013-08-16 02:08:31,0.00,0.43,0.00,25.73,29.58,31.77,6.12,28.83,1009.92,2041.01,3271.00,3229.00,3471.96,350.85,319.67,19.72,0000 0000 0000 0000 000000
2013-08-16 02:09:31,-0.01,0.43,0.00,25.74,29.59,31.84,5.84,28.67,1009.94,2041.01,3271.00,3229.00,3471.97,349.94,318.84,19.72,0000 0000 0000 0000 000000
2013-08-16 02:10:31,-0.00,0.43,0.00,25.75,29.60,31.84,6.10,28.67,1009.91,2041.00,3270.91,3229.00,3471.96,349.70,318.59,19.73,0000 0000 0000 0000 000000
2013-08-16 02:11:32,0.02,0.43,0.00,25.73,29.60,31.83,5.81,28.42,1009.92,2041.00,3270.70,3228.99,3471.86,349.70,318.62,19.73,0000 0000 0000 0000 000000
2013-08-16 02:12:32,0.06,0.43,0.00,25.74,29.60,31.84,5.94,28.75,1009.94,2041.00,3270.33,3228.93,3471.51,350.12,318.99,19.74,0000 0000 0000 0000 000000
2013-08-16 02:13:32,0.09,0.43,0.00,25.76,29.60,31.78,6.02,28.71,1009.97,2041.00,3270.13,3228.76,3471.24,350.66,319.48,19.74,0000 0000 0000 0000 000000
2013-08-16 02:14:32,0.11,0.43,0.00,25.77,29.60,31.79,5.69,28.54,1009.94,2041.01,3270.04,3228.39,3471.09,349.34,318.09,19.75,0000 0000 0000 0000 000000
2013-08-16 02:15:33,0.08,0.43,0.00,25.78,29.61,31.84,5.70,28.63,1009.97,2041.00,3270.01,3228.26,3471.04,348.71,317.97,19.76,0000 0000 0000 0000 000000
2013-08-16 02:16:33,0.05,0.43,0.00,25.80,29.62,31.87,5.81,28.63,1009.94,2041.00,3269.99,3228.11,3471.01,349.37,318.57,19.76,0000 0000 0000 0000 000000
2013-08-16 02:17:33,0.03,0.43,0.00,25.81,29.62,31.82,6.05,28.63,1010.03,2041.00,3269.99,3228.04,3471.00,349.26,318.17,19.77,0000 0000 0000 0000 000000
2013-08-16 02:18:33,0.01,0.43,0.00,25.83,29.62,31.88,5.84,28.58,1010.03,2041.00,3269.97,3228.01,3470.98,349.87,318.69,19.77,0000 0000 0000 0000 000000
2013-08-16 02:19:34,0.01,0.43,0.00,25.78,29.62,31.89,6.09,28.63,1010.05,2041.00,3269.83,3228.00,3470.96,350.73,319.54,19.78,0000 0000 0000 0000 000000
2013-08-16 02:20:34,0.02,0.43,0.00,25.73,29.62,31.88,5.97,28.67,1010.00,2041.00,3269.60,3228.00,3470.92,350.43,319.31,19.79,0000 0000 0000 0000 000000
2013-08-16 02:21:34,0.04,0.43,0.00,25.72,29.63,31.89,5.77,28.83,1010.00,2041.00,3269.41,3228.00,3470.92,349.89,318.82,19.79,0000 0000 0000 0000 000000
2013-08-16 02:22:34,0.02,0.43,0.00,25.78,29.64,31.90,5.74,28.88,1010.05,2041.00,3269.21,3227.99,3470.89,350.50,319.34,19.80,0000 0000 0000 0000 000000
2013-08-16 02:23:35,0.04,0.43,0.00,25.80,29.65,31.86,5.81,28.92,1010.00,2041.00,3269.08,3227.98,3470.67,349.50,318.55,19.80,0000 0000 0000 0000 000000
2013-08-16 02:24:35,0.03,0.43,0.00,25.80,29.65,31.91,5.87,28.92,1009.97,2041.00,3269.03,3227.99,3470.46,349.95,318.79,19.81,0000 0000 0000 0000 000000
2013-08-16 02:25:35,0.03,0.43,0.00,25.78,29.65,31.90,5.69,28.67,1010.03,2041.00,3269.00,3227.99,3470.31,348.83,317.70,19.82,0000 0000 0000 0000 000000
2013-08-16 02:26:35,0.02,0.43,0.00,25.77,29.65,31.83,5.84,28.83,1009.99,2041.00,3269.00,3227.93,3470.13,349.91,318.58,19.82,0000 0000 0000 0000 000000
2013-08-16 02:27:36,0.02,0.43,0.00,25.79,29.65,31.84,5.89,28.67,1010.03,2041.00,3269.00,3227.84,3470.05,349.64,318.54,19.83,0000 0000 0000 0000 000000
2013-08-16 02:28:36,0.03,0.43,0.00,25.82,29.65,31.92,6.03,28.83,1010.04,2041.00,3268.99,3227.57,3470.02,350.58,319.36,19.83,0000 0000 0000 0000 000000
2013-08-16 02:29:36,0.07,0.44,0.00,25.83,29.66,31.89,5.97,28.75,1010.00,2041.00,3268.94,3227.28,3470.00,349.60,318.45,19.84,0000 0000 0000 0000 000000
2013-08-16 02:30:36,0.07,0.44,0.00,25.81,29.67,31.87,5.84,28.75,1009.95,2040.99,3268.75,3227.13,3470.00,349.34,318.21,19.84,0000 0000 0000 0000 000000
2013-08-16 02:31:37,0.04,0.44,0.00,25.80,29.67,31.82,5.95,28.46,1009.99,2040.95,3268.44,3227.07,3469.99,350.52,319.31,19.85,0000 0000 0000 0000 000000
2013-08-16 02:32:37,0.04,0.44,0.00,25.79,29.67,31.85,5.69,28.50,1009.99,2040.97,3268.23,3227.03,3469.98,349.48,318.38,19.86,0000 0000 0000 0000 000000
2013-08-16 02:33:37,0.04,0.44,0.00,25.83,29.67,31.93,5.77,28.63,1010.04,2040.97,3268.10,3227.01,3469.97,349.98,318.81,19.86,0000 0000 0000 0000 000000
2013-08-16 02:34:37,0.02,0.44,0.00,25.85,29.67,31.91,5.88,28.71,1010.04,2040.96,3268.04,3227.00,3469.92,350.37,318.98,19.87,0000 0000 0000 0000 000000
2013-08-16 02:35:38,0.01,0.44,0.00,25.88,29.68,31.86,5.84,28.79,1010.08,2040.95,3268.01,3227.00,3469.75,349.81,318.38,19.87,0000 0000 0000 0000 000000
2013-08-16 02:36:38,0.01,0.44,0.00,25.87,29.69,31.86,5.98,28.96,1010.04,2040.93,3268.00,3227.00,3469.39,350.61,319.06,19.88,0000 0000 0000 0000 000000